Location: Crab Orchard
(37.7292°N, 88.8042°W)
Time: 14:06:54
(UTC+00:00)

Meteor 1-27 Rocket - Pass Details

Date: 08 December 2019
Orbit: 830 x 909 km, 81.3° (Epoch: 23 January)

Event Time Altitude Azimuth Distance (km) Brightness Sun altitude
Rises 23:10:40 0° 178° (S) 3,412 7.2 -6.9°
Reaches altitude 10° 23:13:04 10° 176° (S) 2,491 6.4 -7.4°
Maximum altitude 23:18:40 65° 95° (E) 957 3.8 -8.4°
Drops below altitude 10° 23:24:25 10° 15° (NNE) 2,560 5.9 -9.5°
Sets 23:26:55 0° 13° (NNE) 3,514 6.6 -9.9°
